Les Eplatures, Switzerland

11:20 PM CEST on June 23, 2017 (GMT +0200)
Les Eplatures

Weather History for LSGC - January, 2013

Change the Weather History Date:

Tuesday, January 8, 2013

  Actual Average Record
Temperature  
Mean Temperature 37 °F -  
Max Temperature 51 °F - - ()
Min Temperature 23 °F - - ()
Degree Days  
Heating Degree Days 28    
Moisture  
Dew Point 21 °F    
Average Humidity 66    
Maximum Humidity 86    
Minimum Humidity 15    
Precipitation  
Precipitation 0.00 in - - ()
Sea Level Pressure  
Sea Level Pressure 30.27 in    
Wind  
Wind Speed 1 mph ()    
Max Wind Speed 4 mph    
Max Gust Speed -    
Visibility 6.2 miles    
Events      
T = Trace of Precipitation, MM = Missing Value Source: Averaged Metar Reports

Daily Weather History Graph

Daily Weather History Graph

Search for Another Location

Airport or City:

Trip Planner

Search our weather history database for the weather conditions in past years. The results will help you decide how hot, cold, wet, or windy it might be!

Date:

Astronomy

Jan. 08, 2013 Rise Set
Actual Time 8:17 AM CET 5:01 PM CET
Civil Twilight 7:42 AM CET 5:36 PM CET
Nautical Twilight 7:04 AM CET 6:14 PM CET
Astronomical Twilight 6:27 AM CET 6:51 PM CET
Moon 4:30 AM CET (1/8) 1:50 PM CET (1/8)
Length of Visible Light 9h 53m
Length of Day
8h 43m
Waning Crescent, 16% of the Moon is Illuminated
Jan 8
Waning Crescent
Jan 11
New
Jan 19
First Quarter
Jan 27
Full
Feb 3
Last Quarter

Hourly Weather History & Observations

Time (CET) Temp. Windchill Dew Point Humidity Pressure Visibility Wind Dir Wind Speed Gust Speed Precip Events Conditions
12:20 AM 28.4 °F - 19.4 °F 69% 30.27 in - Calm Calm - N/A   Clear
12:50 AM 26.6 °F - 19.4 °F 74% 30.27 in - Variable 2.3 mph - N/A   Clear
1:20 AM 24.8 °F - 17.6 °F 74% 30.27 in - WSW 1.2 mph - N/A   Clear
1:50 AM 26.6 °F - 19.4 °F 74% 30.27 in - Calm Calm - N/A   Clear
2:20 AM 26.6 °F - 19.4 °F 74% 30.27 in - Variable 1.2 mph - N/A   Clear
2:50 AM 24.8 °F - 19.4 °F 80% 30.27 in - SW 1.2 mph - N/A   Clear
3:20 AM 24.8 °F - 19.4 °F 80% 30.27 in - Variable 1.2 mph - N/A   Clear
3:50 AM 24.8 °F - 19.4 °F 80% 30.27 in - Calm Calm - N/A   Clear
4:20 AM 28.4 °F - 17.6 °F 64% 30.27 in - WSW 2.3 mph - N/A   Clear
4:50 AM 23.0 °F - 19.4 °F 86% 30.27 in - Calm Calm - N/A   Clear
5:20 AM 24.8 °F - 19.4 °F 80% 30.27 in 6.2 mi WSW 1.2 mph - N/A   Unknown
5:50 AM 24.8 °F - 15.8 °F 69% 30.24 in - WSW 1.2 mph - N/A   Clear
6:20 AM 26.6 °F 22.6 °F 17.6 °F 69% 30.24 in - WSW 3.5 mph - N/A   Clear
6:50 AM 23.0 °F - 17.6 °F 80% 30.24 in - Calm Calm - N/A   Clear
7:20 AM 28.4 °F 24.6 °F 17.6 °F 64% 30.27 in 6.2 mi WSW 3.5 mph - N/A   Unknown
7:50 AM 26.6 °F - 19.4 °F 74% 30.27 in - WSW 2.3 mph - N/A   Clear
8:20 AM 28.4 °F - 19.4 °F 69% 30.27 in - Variable 2.3 mph - N/A   Clear
8:50 AM 26.6 °F - 19.4 °F 74% 30.27 in - WSW 1.2 mph - N/A   Clear
9:20 AM 26.6 °F - 21.2 °F 80% 30.30 in - WSW 2.3 mph - N/A   Clear
9:50 AM 28.4 °F - 21.2 °F 74% 30.30 in - Variable 1.2 mph - N/A   Clear
10:20 AM 32.0 °F 28.7 °F 21.2 °F 64% 30.30 in - SW 3.5 mph - N/A   Clear
10:50 AM 33.8 °F - 24.8 °F 70% 30.30 in - Calm Calm - N/A   Clear
11:20 AM 35.6 °F - 26.6 °F 70% 30.30 in - Variable 1.2 mph - N/A   Clear
11:50 AM 41.0 °F - 26.6 °F 57% 30.30 in - WSW 1.2 mph - N/A   Clear
12:20 PM 41.0 °F - 26.6 °F 57% 30.30 in - SSW 1.2 mph - N/A   Clear
12:50 PM 44.6 °F - 24.8 °F 46% 30.27 in - Variable 1.2 mph - N/A   Clear
1:20 PM 46.4 °F - 24.8 °F 43% 30.27 in - Calm Calm - N/A   Clear
1:50 PM 48.2 °F - 14.0 °F 25% 30.27 in - Calm Calm - N/A   Clear
2:20 PM 51.8 °F - 5.0 °F 15% 30.27 in - NNE 3.5 mph - N/A   Clear
2:50 PM 50.0 °F - 8.6 °F 19% 30.27 in - Variable 2.3 mph - N/A   Clear
3:20 PM 46.4 °F - 23.0 °F 40% 30.27 in - WSW 2.3 mph - N/A   Clear
3:50 PM 44.6 °F - 24.8 °F 46% 30.27 in - Variable 1.2 mph - N/A   Clear
4:20 PM 44.6 °F - 23.0 °F 43% 30.27 in - Variable 1.2 mph - N/A   Clear
4:50 PM 39.2 °F - 24.8 °F 56% 30.27 in - Calm Calm - N/A   Clear
5:20 PM 35.6 °F - 23.0 °F 60% 30.27 in - Variable 1.2 mph - N/A   Clear
5:50 PM 35.6 °F - 23.0 °F 60% 30.27 in - Calm Calm - N/A   Clear
6:20 PM 32.0 °F - 23.0 °F 69% 30.27 in - Calm Calm - N/A   Clear
6:50 PM 32.0 °F - 23.0 °F 69% 30.27 in - Calm Calm - N/A   Clear
7:20 PM 30.2 °F - 21.2 °F 69% 30.27 in - Calm Calm - N/A   Clear
7:50 PM 30.2 °F - 21.2 °F 69% 30.27 in - Variable 1.2 mph - N/A   Clear
8:20 PM 30.2 °F - 21.2 °F 69% 30.27 in - Calm Calm - N/A   Clear
8:50 PM 32.0 °F - 23.0 °F 69% 30.27 in - WSW 2.3 mph - N/A   Clear
9:20 PM 28.4 °F - 23.0 °F 80% 30.27 in - Variable 1.2 mph - N/A   Clear
9:50 PM 26.6 °F - 23.0 °F 86% 30.24 in - Calm Calm - N/A   Clear
10:20 PM 30.2 °F - 24.8 °F 80% 30.24 in - WSW 2.3 mph - N/A   Clear
10:50 PM 26.6 °F - 21.2 °F 80% 30.24 in - Calm Calm - N/A   Clear
11:20 PM 26.6 °F - 23.0 °F 86% 30.24 in - WSW 2.3 mph - N/A   Clear
11:50 PM 28.4 °F - 23.0 °F 80% 30.24 in - Variable 2.3 mph - N/A   Clear